Content
SEND FEEDBACK

Daily
Averages
Monthly
Summary
United States of America

FAIRFIELD, ILLINOIS


Home > North America > United States > Illinois
Elevation: 410 feet     Latitude: 38 22N     Longitude: 088 19W

WEATHER
 
SELECT A DAY
Number of Records: 312,364;   Date Range: 7/17/01 - 9/22/14
 
SHARE

PRINT THIS DATA

[ ← Previous Day ]
WEATHER ALMANAC - JANUARY 31, 2013
[ Next Day → ]
[ °C ]   °F
Weather ElementAverageHighLow
Temperature27.1 °F35.6 °F (12:55 pm)15.8 °F (11:35 pm)
Dewpoint18.3 °F28.4 °F (4:15 pm)5 °F (11:55 pm)
Humidity70 %93 % (4:15 pm)58 % (8:55 pm)
Barometer30.04 in30.32 in (11:55 pm)29.88 in (12:35 am)
Wind Speed10.8 mph18.4 mph (5:15 pm)
Wind Gust28.8 mph (6:15 pm)
Weather ElementAverage
Visibility8.9 mi
Wind DirectionWNW (279 °)

Weather ElementTotal
Precipitation---
Heating Degree Days39.3 (Base 65)
Averaged from 68 records on January 31, 2013
WEATHER CONDITIONS BREAKOUT
WIND DIRECTION BREAKOUT
WEATHER BY HOUR - JANUARY 31, 2013
[ °C ]   °F
Local TimeTemperatureDewpointHumidityBarometerVisibilityWind DirectionWind SpeedGust SpeedPrecipitationEventsConditions
12:35 AM30.2 °F19.4 °F64 %29.88 in10.0 miWest (270°)11.5 mph20.7 mphOvercast
12:55 AM28.4 °F21.2 °F74 %29.89 in10.0 miWest (280°)11.5 mph23.0 mphOvercast
1:15 AM28.4 °F19.4 °F69 %29.90 in10.0 miWest (280°)15.0 mph20.7 mphOvercast
1:35 AM28.4 °F19.4 °F69 %29.91 in10.0 miWest (280°)11.5 mph25.3 mphOvercast
1:55 AM28.4 °F19.4 °F69 %29.92 in10.0 miWNW (290°)10.4 mph19.6 mphOvercast
2:15 AM28.4 °F19.4 °F69 %29.92 in10.0 miWNW (290°)15.0 mph23.0 mphOvercast
2:35 AM28.4 °F17.6 °F64 %29.92 in10.0 miWest (280°)11.5 mph20.7 mphOvercast
2:55 AM28.4 °F17.6 °F64 %29.93 in10.0 miWest (280°)13.8 mph23.0 mphOvercast
3:15 AM28.4 °F17.6 °F64 %29.93 in10.0 miWest (280°)6.9 mph19.6 mphOvercast
3:35 AM28.4 °F19.4 °F69 %29.93 in10.0 miWNW (290°)9.2 mph18.4 mphOvercast
3:55 AM28.4 °F19.4 °F69 %29.93 in10.0 miWest (280°)5.8 mph20.7 mphOvercast
4:15 AM26.6 °F21.2 °F80 %29.93 in7.0 miWest (280°)8.1 mphSnowLight Snow
4:35 AM28.4 °F21.2 °F74 %29.95 in10.0 miWest (270°)9.2 mphOvercast
4:55 AM28.4 °F19.4 °F69 %29.94 in10.0 miWest (280°)9.2 mph17.3 mphOvercast
5:15 AM28.4 °F19.4 °F69 %29.95 in10.0 miWest (270°)11.5 mph17.3 mphOvercast
5:35 AM28.4 °F19.4 °F69 %29.95 in10.0 miWest (280°)6.9 mphOvercast
5:55 AM28.4 °F19.4 °F69 %29.95 in10.0 miWest (260°)5.8 mphOvercast
6:15 AM28.4 °F19.4 °F69 %29.95 in10.0 miWest (260°)8.1 mphOvercast
6:35 AM28.4 °F21.2 °F74 %29.96 in10.0 miWest (260°)10.4 mph17.3 mphOvercast
6:55 AM28.4 °F19.4 °F69 %29.97 in10.0 miWSW (250°)11.5 mph18.4 mphOvercast
7:15 AM28.4 °F19.4 °F69 %29.98 in10.0 miWest (260°)12.7 mph21.9 mphOvercast
7:35 AM28.4 °F19.4 °F69 %29.98 in10.0 miWest (260°)6.9 mphScattered Clouds
7:55 AM28.4 °F19.4 °F69 %30.00 in10.0 miWest (260°)11.5 mphClear
8:15 AM28.4 °F19.4 °F69 %30.00 in10.0 miWSW (250°)11.5 mph16.1 mphScattered Clouds
8:35 AM28.4 °F19.4 °F69 %30.01 in10.0 miWSW (250°)8.1 mph17.3 mphScattered Clouds
9:15 AM30.2 °F21.2 °F69 %30.02 in10.0 miWSW (250°)11.5 mph17.3 mphOvercast
9:35 AM30.2 °F21.2 °F69 %30.03 in10.0 miWest (260°)11.5 mphOvercast
9:55 AM30.2 °F21.2 °F69 %30.03 in10.0 miWSW (250°)10.4 mph17.3 mphMostly Cloudy
10:15 AM30.2 °F21.2 °F69 %30.04 in10.0 miWSW (240°)11.5 mphOvercast
10:35 AM30.2 °F21.2 °F69 %30.04 in10.0 miWSW (250°)11.5 mph17.3 mphOvercast
10:55 AM30.2 °F21.2 °F69 %30.04 in10.0 miWSW (250°)11.5 mph25.3 mphOvercast
11:15 AM30.2 °F21.2 °F69 %30.05 in10.0 miWSW (250°)12.7 mph20.7 mphOvercast
11:35 AM30.2 °F21.2 °F69 %30.04 in10.0 miWSW (240°)16.1 mph21.9 mphOvercast
12:35 PM33.8 °F23.0 °F65 %30.01 in10.0 miWest (270°)9.2 mph15.0 mphMostly Cloudy
12:55 PM35.6 °F23.0 °F60 %30.00 in10.0 miWest (260°)10.4 mph17.3 mphOvercast
1:15 PM33.8 °F21.2 °F60 %30.00 in10.0 miWSW (250°)13.8 mph20.7 mphOvercast
1:35 PM33.8 °F21.2 °F60 %29.99 in10.0 miWest (260°)13.8 mph21.9 mphOvercast
1:55 PM33.8 °F21.2 °F60 %29.99 in10.0 miWSW (250°)9.2 mph16.1 mphOvercast
2:15 PM33.8 °F21.2 °F60 %29.99 in10.0 miWest (260°)9.2 mph17.3 mphOvercast
2:35 PM33.8 °F23.0 °F65 %29.99 in10.0 miWest (270°)11.5 mph19.6 mphMostly Cloudy
2:55 PM33.8 °F23.0 °F65 %29.99 in10.0 miWest (270°)9.2 mph19.6 mphOvercast
3:15 PM33.8 °F24.8 °F70 %30.00 in10.0 miWSW (250°)11.5 mph19.6 mphOvercast
3:35 PM33.8 °F26.6 °F75 %30.00 in10.0 miWSW (250°)9.2 mph16.1 mphOvercast
3:55 PM33.8 °F26.6 °F75 %30.01 in4.0 miWest (260°)6.9 mphSnowLight Snow
4:15 PM30.2 °F28.4 °F93 %30.01 in1.0 miWest (270°)10.4 mph16.1 mphSnowLight Snow
4:35 PM30.2 °F28.4 °F93 %30.02 in2.0 miWest (280°)8.1 mphSnowLight Snow
4:55 PM30.2 °F28.4 °F93 %30.02 in0.8 miWest (270°)4.6 mphSnowLight Snow
5:15 PM28.4 °F26.6 °F93 %30.04 in0.5 miNW (310°)18.4 mph24.2 mphSnowSnow
5:35 PM26.6 °F24.8 °F93 %30.05 in0.5 miWNW (300°)16.1 mph20.7 mphSnowLight Snow
5:55 PM26.6 °F24.8 °F93 %30.06 in1.5 miWNW (300°)10.4 mph20.7 mphSnowLight Snow
6:15 PM23.0 °F19.4 °F86 %30.09 in1.5 miNNW (330°)12.7 mph28.8 mphSnowLight Snow
6:35 PM23.0 °F17.6 °F80 %30.11 in3.0 miNNW (330°)11.5 mph20.7 mphSnowLight Snow
6:55 PM23.0 °F15.8 °F74 %30.13 in10.0 miNW (310°)11.5 mph19.6 mphOvercast
7:15 PM21.2 °F12.2 °F68 %30.14 in10.0 miNW (310°)12.7 mph20.7 mphMostly Cloudy
7:35 PM21.2 °F10.4 °F63 %30.16 in10.0 miWNW (300°)11.5 mph21.9 mphScattered Clouds
7:55 PM21.2 °F10.4 °F63 %30.17 in10.0 miNW (310°)8.1 mph19.6 mphClear
8:15 PM19.4 °F8.6 °F63 %30.18 in10.0 miNW (310°)13.8 mph19.6 mphClear
8:35 PM19.4 °F8.6 °F63 %30.20 in10.0 miNW (310°)10.4 mph20.7 mphClear
8:55 PM19.4 °F6.8 °F58 %30.21 in10.0 miNW (310°)16.1 mph23.0 mphClear
9:15 PM17.6 °F6.8 °F63 %30.23 in10.0 miNNW (330°)10.4 mph24.2 mphMostly Cloudy
9:35 PM17.6 °F6.8 °F63 %30.24 in10.0 miNW (310°)10.4 mph19.6 mphOvercast
9:55 PM17.6 °F6.8 °F63 %30.25 in10.0 miNW (310°)9.2 mph16.1 mphOvercast
10:15 PM17.6 °F8.6 °F68 %30.26 in10.0 miWNW (300°)11.5 mph20.7 mphOvercast
10:35 PM17.6 °F8.6 °F68 %30.27 in10.0 miNW (310°)10.4 mph16.1 mphOvercast
10:55 PM17.6 °F8.6 °F68 %30.28 in10.0 miWNW (300°)8.1 mph19.6 mphOvercast
11:15 PM17.6 °F6.8 °F63 %30.29 in10.0 miNW (310°)11.5 mph21.9 mphMostly Cloudy
11:35 PM15.8 °F6.8 °F68 %30.30 in10.0 miNW (310°)12.7 mph24.2 mphScattered Clouds
11:55 PM15.8 °F5.0 °F62 %30.32 in10.0 miNW (310°)11.5 mph20.7 mphClear
Hourly data recorded from KFWC, located miles away from Fairfield, Illinois







STORIES FROM OUR PARTNERS